#timestamp,LO_Frequency,Hit 
1601380815.2,286047002.3,N
1601380835.9,286047002.2,N
1601380855.7,286047002.5,N
1601380875.6,286047002.2,N
1601380895.4,286047001.9,N
1601380915.2,286047002.7,N
1601380935.1,286047002.3,N
1601380936.0,286047002.3,N
1601380955.8,286047002.4,N
1601380975.6,286047002.5,N
1601380995.5,286047000.0,N
1601381015.3,286046999.8,N
1601381035.1,286047001.9,N
1601381055.8,286047001.9,N
1601381075.7,286046999.7,N
1601381095.5,286047001.6,N
1601381115.3,286046999.8,N
1601381135.2,286047002.1,N
1601381155.0,286047002.7,N
1601381155.9,286047002.7,N
1601381175.7,286047002.2,N
1601381195.6,286047000.2,N
1601381215.4,286047002.4,N
1601381235.2,286047001.6,N
1601381255.1,286047002.8,N
1601381256.0,286047002.8,N
1601381275.8,286047001.5,N
1601381295.6,286046999.7,N
1601381315.5,286047001.9,N
1601381335.3,286047002.6,N
1601381355.1,286047000.6,N
1601381375.9,286047002.7,N
1601381395.7,286047001.5,N
1601381415.5,286047002.8,N
1601381435.4,286047002.2,N
1601381455.2,286047001.6,N
1601381475.0,286047002.7,N
1601381475.9,286047002.7,N
1601381495.8,286047001.8,N
1601381515.6,286047002.6,N
1601381535.4,286047002.0,N
1601381555.3,286047002.4,N
1601381575.1,286047001.5,N
1601381576.0,286047001.5,N
1601381595.8,286047002.3,N
1601381615.7,286047001.8,N
1601381635.5,286047002.5,N
1601381655.3,286047002.2,N
1601381675.2,286047002.8,P
1601381695.9,286046998.4,P
1601381715.7,286046998.4,N
1601381735.6,286046998.4,N
1601381755.4,286046998.5,N
1601381775.2,286046998.1,N
1601381795.1,286047000.7,N
1601381796.0,286047000.7,N
1601381815.8,286046998.5,N
1601381835.6,286047000.8,N
1601381855.5,286047000.9,N
1601381875.3,286047000.0,N
1601381895.1,286046998.7,N
1601381915.9,286046998.2,N
1601381935.7,286047000.7,N
1601381955.5,286047002.7,N
1601381975.3,286047000.5,N
1601381995.2,286047000.8,N
1601382015.0,286047000.0,N
1601382015.9,286047000.0,N
1601382035.7,286047000.9,N
1601382055.6,286046998.1,N
1601382075.4,286047000.9,N
1601382095.2,286047000.9,N
1601382115.1,286046998.1,N
1601382116.0,286046998.1,N
1601382135.8,286047000.8,N
1601382155.6,286047000.2,N
1601382175.5,286047000.2,N
1601382195.3,286047000.5,N
1601382215.1,286047000.6,N
1601382235.9,286047001.0,N
1601382255.7,286046999.9,N
1601382275.5,286047000.5,N
1601382295.4,286047000.8,N
1601382315.2,286046999.9,N
1601382335.0,286047000.2,N
1601382335.9,286047000.2,N
1601382355.8,286047000.7,N
1601382375.6,286047001.1,N
1601382395.4,286046998.1,N
1601382415.3,286046999.9,N
1601382435.1,286047000.5,N
1601382436.0,286047000.5,N
1601382455.8,286047000.9,N
1601382475.7,286047000.8,N
1601382495.5,286046998.8,N
1601382515.3,286047000.6,N
1601382535.2,286046998.2,N
1601382555.9,286047002.8,N
1601382575.7,286047000.5,N
1601382595.5,286047001.0,N
1601382615.4,286047002.8,N
1601382635.2,286046999.9,N
1601382655.0,286047001.0,N
1601382655.9,286047001.0,N
1601382675.8,286046999.9,N
1601382695.6,286047000.8,N
1601382715.4,286047000.5,N
1601382735.3,286046998.2,N
1601382755.1,286047000.7,N
1601382775.8,286047000.3,N
1601382795.7,286046998.3,N
1601382815.5,286046998.2,N
1601382835.3,286047000.7,N
1601382855.2,286047000.3,N
1601382875.9,286047000.4,N
1601382895.7,286046998.3,N
1601382915.6,286047000.3,N
1601382935.4,286047000.4,N
1601382955.2,286046999.4,N
1601382975.1,286047000.7,N
1601382976.0,286047000.7,N
1601382995.8,286046998.9,N
1601383015.6,286046998.6,N
1601383035.5,286047001.2,N
1601383055.3,286046998.6,N
1601383075.1,286046998.4,N
1601383095.9,286046998.3,N
1601383115.7,286046998.8,N
1601383135.5,286046999.5,N
1601383155.3,286046998.9,N
1601383175.2,286046997.2,N
1601383195.0,286046997.0,N
1601383195.9,286046997.0,N
1601383215.7,286046999.5,N
1601383235.6,286046996.8,N
1601383255.4,286046996.5,N
1601383275.2,286046997.4,N
1601383295.1,286046997.3,N
1601383296.0,286046997.3,N
1601383315.8,286046995.3,P
1601383335.7,286046996.7,N
1601383355.5,286046999.4,N
1601383375.3,286046998.9,N
1601383395.1,286046996.6,N
1601383415.9,286046997.3,N
1601383435.7,286046997.4,N
1601383455.5,286046997.3,N
1601383475.4,286046996.8,N
1601383495.2,286046997.7,N
1601383515.1,286046995.5,P
1601383516.0,286046995.5,P
1601383535.8,286046998.5,N
1601383555.6,286046998.3,N
1601383575.5,286046998.4,N
1601383595.3,286046999.4,N
1601383615.1,286046998.3,N
1601383635.8,286047001.2,N
1601383655.7,286047001.2,N
1601383675.5,286046999.6,N
1601383695.3,286046998.4,N
1601383715.2,286046996.6,N
1601383735.0,286046996.7,N
1601383735.9,286046996.7,N
1601383755.7,286046999.5,N
1601383775.6,286046995.2,N
1601383795.4,286046997.8,N
1601383815.2,286046997.9,N
1601383835.1,286046995.3,N
1601383836.0,286046995.3,N
1601383855.8,286046997.3,N
1601383875.6,286046997.5,N
1601383895.5,286046995.2,N
1601383915.3,286046995.0,N
1601383935.1,286046996.4,N
1601383955.9,286046996.3,N
1601383975.7,286046995.3,N
1601383995.5,286046993.3,P
1601384015.4,286046999.6,N
1601384035.2,286046997.5,N
1601384055.0,286046997.2,N
1601384055.9,286046997.2,N
1601384075.8,286046997.4,N
1601384095.6,286046994.9,N
1601384115.4,286046996.1,N
1601384135.3,286046995.6,N
1601384155.1,286046996.3,N
1601384175.8,286046995.1,P
1601384195.7,286047001.2,N
1601384215.5,286047001.0,N
1601384235.3,286046999.3,N
1601384255.2,286047000.9,N
1601384275.9,286046998.6,N
1601384295.7,286046999.4,N
1601384315.6,286046996.6,N
1601384335.4,286046998.7,N
1601384355.2,286046996.6,N
1601384375.1,286046999.0,N
1601384376.0,286046999.0,N
1601384395.8,286046997.0,N
